| time (UTC) | temp C | wind direction | speed KPH | gust KPH | rain 1hr cm | rain 24hr cm | rain mn cm | humidity % | barometer mb |
| 20260906154543 | 21 | 302 | 1.6 | 6.4 | 0.03 | 0.08 | 0.08 | 85 | 1013.8 |
| 20260906153045 | 21 | 307 | 0.0 | 4.8 | 0.03 | 0.05 | 0.05 | 85 | 1013.4 |
| 20260906151539 | 21 | 9 | 0.0 | 0.0 | 0.03 | 0.05 | 0.05 | 84 | 1013.3 |
| 20260906150037 | 21 | 5 | 4.8 | 9.7 | 0.03 | 0.05 | 0.05 | 84 | 1013.2 |
| 20260906144538 | 21 | 39 | 1.6 | 8.0 | 0.03 | 0.05 | 0.05 | 86 | 1012.7 |
| 20260906143037 | 21 | 23 | 0.0 | 8.0 | 0.00 | 0.03 | 0.03 | 85 | 1013.0 |
| 20260906141539 | 21 | 349 | 4.8 | 9.7 | 0.00 | 0.03 | 0.03 | 85 | 1013.1 |
| 20260906140038 | 21 | 26 | 3.2 | 16.1 | 0.00 | 0.03 | 0.03 | 85 | 1012.8 |
| 20260906134534 | 21 | 336 | 8.0 | 16.1 | 0.00 | 0.03 | 0.03 | 86 | 1012.8 |
| 20260906133044 | 21 | 34 | 4.8 | 9.7 | 0.00 | 0.03 | 0.03 | 86 | 1012.5 |
| 20260906131532 | 21 | 324 | 0.0 | 8.0 | 0.00 | 0.03 | 0.03 | 86 | 1013.0 |
| 20260906130030 | 22 | 338 | 3.2 | 6.4 | 0.03 | 0.03 | 0.03 | 89 | 1012.7 |
| 20260906124527 | 22 | 355 | 0.0 | 6.4 | 0.03 | 0.03 | 0.03 | 90 | 1012.2 |
| 20260906123036 | 22 | 311 | 1.6 | 11.3 | 0.03 | 0.03 | 0.03 | 90 | 1011.9 |
| 20260906121525 | 22 | 284 | 1.6 | 8.0 | 0.03 | 0.03 | 0.03 | 90 | 1011.9 |
| 20260906120022 | 22 | 255 | 0.0 | 0.0 | 0.00 | 0.00 | 0.00 | 89 | 1011.7 |
| 20260906114523 | 22 | 259 | 0.0 | 0.0 | 0.00 | 0.00 | 0.00 | 89 | 1011.4 |
| 20260906113014 | 22 | 259 | 0.0 | 0.0 | 0.00 | 0.00 | 0.00 | 89 | 1011.5 |
| 20260906111509 | 22 | 259 | 0.0 | 0.0 | 0.00 | 0.00 | 0.00 | 88 | 1011.5 |
| 20260906110005 | 22 | 259 | 0.0 | 6.4 | 0.00 | 0.00 | 0.00 | 88 | 1011.5 |
| 20260906104500 | 22 | 259 | 0.0 | 9.7 | 0.00 | 0.00 | 0.00 | 88 | 1011.7 |
| 20260906103057 | 22 | 257 | 0.0 | 0.0 | 0.00 | 0.00 | 0.00 | 88 | 1011.7 |
| 20260906101554 | 22 | 256 | 3.2 | 9.7 | 0.00 | 0.00 | 0.00 | 89 | 1011.7 |
| 20260906100051 | 22 | 309 | 0.0 | 0.0 | 0.00 | 0.00 | 0.00 | 89 | 1011.7 |
| 20260906094550 | 21 | 309 | 0.0 | 0.0 | 0.00 | 0.00 | 0.00 | 89 | 1011.7 |
| 20260906093056 | 21 | 309 | 0.0 | 0.0 | 0.00 | 0.00 | 0.00 | 88 | 1011.8 |
| 20260906091546 | 21 | 310 | 0.0 | 0.0 | 0.00 | 0.00 | 0.00 | 88 | 1011.9 |
| 20260906090046 | 20 | 310 | 0.0 | 0.0 | 0.00 | 0.00 | 0.00 | 86 | 1011.8 |
| 20260906084548 | 21 | 309 | 0.0 | 0.0 | 0.00 | 0.00 | 0.00 | 86 | 1012.0 |
| 20260906083044 | 20 | 309 | 0.0 | 0.0 | 0.00 | 0.00 | 0.00 | 86 | 1011.9 |
| 20260906081550 | 20 | 310 | 0.0 | 0.0 | 0.00 | 0.00 | 0.00 | 85 | 1012.0 |
| 20260906080042 | 20 | 310 | 0.0 | 0.0 | 0.00 | 0.00 | 0.00 | 83 | 1012.1 |
| 20260906074540 | 21 | 309 | 0.0 | 0.0 | 0.00 | 0.00 | 0.00 | 82 | 1012.0 |
| 20260906073050 | 21 | 310 | 0.0 | 0.0 | 0.00 | 0.00 | 0.00 | 81 | 1012.0 |
| 20260906071535 | 21 | 309 | 0.0 | 0.0 | 0.00 | 0.00 | 0.00 | 81 | 1012.1 |
| 20260906070039 | 21 | 310 | 0.0 | 0.0 | 0.00 | 0.00 | 0.00 | 80 | 1012.2 |
| 20260906064532 | 21 | 309 | 0.0 | 0.0 | 0.00 | 0.00 | 0.00 | 79 | 1012.0 |
| 20260906063032 | 22 | 309 | 0.0 | 0.0 | 0.00 | 0.00 | 0.00 | 79 | 1011.9 |
| 20260906061531 | 22 | 309 | 0.0 | 0.0 | 0.00 | 0.00 | 0.00 | 78 | 1011.9 |
| 20260906060030 | 22 | 310 | 0.0 | 0.0 | 0.00 | 0.00 | 0.00 | 76 | 1012.1 |
| 20260906054530 | 23 | 310 | 0.0 | 0.0 | 0.00 | 0.00 | 0.00 | 75 | 1012.3 |
| 20260906053036 | 23 | 309 | 0.0 | 0.0 | 0.00 | 0.00 | 0.00 | 73 | 1012.4 |
| 20260906051529 | 23 | 309 | 0.0 | 3.2 | 0.00 | 0.00 | 0.00 | 72 | 1012.3 |
| 20260906050032 | 23 | 323 | 0.0 | 0.0 | 0.00 | 0.00 | 0.00 | 74 | 1012.3 |
| 20260906044530 | 23 | 303 | 1.6 | 8.0 | 0.00 | 0.00 | 0.00 | 76 | 1012.3 |
| 20260906043039 | 23 | 306 | 0.0 | 8.0 | 0.00 | 0.00 | 0.00 | 75 | 1012.2 |
| 20260906041527 | 23 | 304 | 0.0 | 0.0 | 0.00 | 0.00 | 0.00 | 75 | 1012.0 |
| 20260906040027 | 23 | 304 | 0.0 | 0.0 | 0.00 | 0.00 | 0.00 | 76 | 1011.9 |
| 20260906034528 | 23 | 304 | 0.0 | 0.0 | 0.00 | 0.00 | 0.00 | 77 | 1011.9 |
| 20260906033026 | 23 | 304 | 0.0 | 0.0 | 0.00 | 0.00 | 0.00 | 79 | 1011.8 |
| 20260906031525 | 23 | 304 | 0.0 | 0.0 | 0.00 | 0.00 | 0.00 | 83 | 1011.7 |
| 20260906030025 | 23 | 304 | 0.0 | 0.0 | 0.00 | 0.00 | 0.00 | 82 | 1011.5 |
| 20260906024525 | 23 | 304 | 0.0 | 8.0 | 0.00 | 0.00 | 0.00 | 82 | 1011.4 |
| 20260906023022 | 23 | 278 | 4.8 | 16.1 | 0.00 | 0.00 | 0.00 | 82 | 1011.5 |
| 20260906021522 | 23 | 277 | 11.3 | 17.7 | 0.00 | 0.00 | 0.00 | 81 | 1011.6 |
| 20260906020020 | 24 | 288 | 9.7 | 20.9 | 0.00 | 0.00 | 0.00 | 80 | 1011.5 |
| 20260906014528 | 24 | 268 | 11.3 | 19.3 | 0.00 | 0.00 | 0.00 | 80 | 1011.7 |
| 20260906013020 | 24 | 252 | 9.7 | 19.3 | 0.00 | 0.00 | 0.00 | 82 | 1011.6 |
| 20260906011520 | 25 | 264 | 11.3 | 20.9 | 0.00 | 0.00 | 0.00 | 81 | 1011.6 |
| 20260906010017 | 25 | 236 | 9.7 | 20.9 | 0.00 | 0.00 | 0.00 | 80 | 1011.6 |
| 20260906004619 | 25 | 235 | 6.4 | 22.5 | 0.00 | 0.00 | 0.00 | 79 | 1011.6 |
| 20260906003051 | 25 | 246 | 8.0 | 17.7 | 0.00 | 0.00 | 0.00 | 77 | 1011.6 |
| 20260906001514 | 26 | 250 | 4.8 | 17.7 | 0.00 | 0.00 | 0.00 | 75 | 1011.6 |
| 20260906000014 | 27 | 256 | 8.0 | 16.1 | 0.00 | 0.00 | 0.00 | 71 | 1011.6 |
| 20260905234512 | 26 | 304 | 11.3 | 19.3 | 0.00 | 0.00 | 0.00 | 70 | 1011.5 |
| 20260905233013 | 26 | 286 | 11.3 | 19.3 | 0.00 | 0.00 | 0.00 | 68 | 1011.7 |
| 20260905231514 | 27 | 242 | 11.3 | 19.3 | 0.00 | 0.00 | 0.00 | 66 | 1011.6 |
| 20260905230008 | 27 | 249 | 9.7 | 17.7 | 0.00 | 0.00 | 0.00 | 67 | 1011.7 |
| 20260905224507 | 27 | 280 | 11.3 | 19.3 | 0.00 | 0.00 | 0.00 | 66 | 1011.9 |
| 20260905223006 | 27 | 265 | 9.7 | 19.3 | 0.00 | 0.00 | 0.00 | 68 | 1012.1 |
| 20260905221503 | 27 | 304 | 12.9 | 20.9 | 0.00 | 0.00 | 0.00 | 69 | 1012.1 |
| 20260905220002 | 27 | 192 | 11.3 | 20.9 | 0.00 | 0.00 | 0.00 | 65 | 1012.2 |
| 20260905214600 | 26 | 261 | 9.7 | 22.5 | 0.00 | 0.00 | 0.00 | 67 | 1012.4 |
| 20260905213102 | 26 | 248 | 11.3 | 19.3 | 0.00 | 0.00 | 0.00 | 66 | 1012.6 |
| 20260905211557 | 27 | 257 | 12.9 | 20.9 | 0.00 | 0.00 | 0.00 | 65 | 1012.6 |
| 20260905210056 | 26 | 269 | 11.3 | 20.9 | 0.00 | 0.00 | 0.00 | 70 | 1012.7 |
| 20260905204555 | 26 | 269 | 8.0 | 20.9 | 0.00 | 0.00 | 0.00 | 71 | 1012.7 |
| 20260905203059 | 26 | 281 | 12.9 | 20.9 | 0.00 | 0.00 | 0.00 | 68 | 1012.9 |
| 20260905201553 | 27 | 256 | 9.7 | 20.9 | 0.00 | 0.00 | 0.00 | 69 | 1013.0 |
| 20260905200056 | 26 | 261 | 9.7 | 19.3 | 0.00 | 0.00 | 0.00 | 70 | 1013.2 |
| 20260905194552 | 27 | 274 | 11.3 | 19.3 | 0.00 | 0.00 | 0.00 | 70 | 1013.4 |
| 20260905193051 | 27 | 257 | 8.0 | 17.7 | 0.00 | 0.00 | 0.00 | 70 | 1013.6 |
| 20260905191550 | 27 | 227 | 6.4 | 16.1 | 0.00 | 0.00 | 0.00 | 70 | 1013.8 |
| 20260905190055 | 27 | 277 | 4.8 | 16.1 | 0.00 | 0.00 | 0.00 | 69 | 1014.0 |
| 20260905184556 | 27 | 227 | 4.8 | 16.1 | 0.00 | 0.00 | 0.00 | 69 | 1014.1 |
| 20260905183050 | 26 | 217 | 4.8 | 17.7 | 0.00 | 0.00 | 0.00 | 71 | 1014.2 |
| 20260905181542 | 26 | 302 | 4.8 | 12.9 | 0.00 | 0.00 | 0.00 | 71 | 1014.0 |
| 20260905180040 | 26 | 219 | 4.8 | 11.3 | 0.00 | 0.00 | 0.00 | 72 | 1014.1 |
| 20260905174539 | 25 | 279 | 3.2 | 14.5 | 0.00 | 0.00 | 0.00 | 74 | 1014.1 |
| 20260905173038 | 25 | 259 | 4.8 | 12.9 | 0.00 | 0.00 | 0.00 | 74 | 1014.1 |
| 20260905171538 | 25 | 278 | 1.6 | 11.3 | 0.00 | 0.00 | 0.00 | 75 | 1014.1 |
| 20260905170038 | 25 | 275 | 3.2 | 9.7 | 0.00 | 0.00 | 0.00 | 75 | 1014.2 |
| 20260905164537 | 25 | 285 | 1.6 | 9.7 | 0.00 | 0.00 | 0.00 | 77 | 1014.2 |
| 20260905163033 | 24 | 271 | 1.6 | 11.3 | 0.00 | 0.00 | 0.00 | 78 | 1014.1 |
| 20260905161531 | 25 | 280 | 1.6 | 6.4 | 0.00 | 0.00 | 0.00 | 77 | 1014.0 |
| 20260905160026 | 23 | 302 | 0.0 | 0.0 | 0.00 | 0.00 | 0.00 | 78 | 1014.0 |